Location: Carlisle
(34.5501°N, 84.5969°W)
Time: 23:42:45
(UTC+00:00)

Hubble Space Telescope - Pass Details

Date: 06 December 2022
Orbit: 529 x 532 km, 28.5° (Epoch: 28 January)

Event Time Altitude Azimuth Distance (km) Brightness Sun altitude
Rises 11:49:17 0° 234° (SW) 2,648 4.0 -8.7°
Reaches altitude 10° 11:51:52 10° 219° (SW) 1,759 3.2 -8.2°
Maximum altitude 11:55:07 23° 166° (SSE) 1,138 2.9 -7.6°
Drops below altitude 10° 11:58:23 10° 112° (ESE) 1,761 5.2 -7.0°
Sets 12:00:57 0° 98° (E) 2,650 6.2 -6.5°
